Theta_e
287 286 284 283 282 282 280 280 280 280 279 278 278 277 277 277 277 276 276 276 276 276 276 277 276 277 277 277 278 278 278 278 275 277 279 281 281 282 284 285 287 290 292
286 285 283 282 280 279 279 279 279 278 278 277 276 276 275 275 275 275 274 274 273 273 273 274 273 274 274 274 275 274 275 276 275 273 276 277 277 280 281 281 286 289 289
285 283 281 280 278 278 278 278 277 276 276 276 275 274 274 274 273 273 273 272 272 272 273 273 273 273 273 273 273 273 273 275 275 273 273 276 276 278 278 281 285 287 290
283 280 279 278 277 278 277 276 276 275 274 274 274 273 273 272 272 272 272 272 272 273 274 274 274 274 273 273 273 273 273 272 273 272 273 273 275 277 278 278 282 285 289
280 279 278 278 277 277 275 275 274 274 273 273 272 272 272 272 272 272 272 272 273 273 274 274 274 274 275 276 274 273 273 272 272 272 272 273 274 275 277 280 282 285 291
278 277 277 276 275 275 274 273 272 272 272 271 271 271 271 271 274 274 274 273 273 272 272 273 274 274 275 276 277 278 277 274 273 272 272 272 273 275 277 278 281 281 284
277 277 275 274 273 273 272 271 270 270 271 270 270 271 270 271 273 275 275 273 273 273 273 273 273 274 275 274 275 276 277 278 279 277 275 275 276 278 279 278 279 280 284
276 275 273 273 271 271 270 269 269 269 269 270 270 269 269 270 273 274 274 273 273 273 273 273 273 273 274 274 274 273 274 275 276 277 276 277 278 279 279 280 280 282 283
275 273 272 271 270 269 268 268 269 269 269 269 269 269 268 267 271 273 274 273 273 273 274 274 274 274 276 277 275 273 273 274 278 279 280 282 283 283 282 280 278 280 279
273 272 271 270 269 268 268 268 269 268 268 268 268 268 268 267 271 274 275 273 272 273 274 275 275 273 275 276 273 272 271 273 275 276 278 279 281 281 283 281 280 277 282
273 271 269 268 267 267 267 267 266 266 267 266 266 269 270 271 271 274 275 274 273 273 272 271 272 274 275 276 276 273 273 275 275 275 276 278 279 279 279 280 282 282 282
270 268 267 266 266 266 264 264 265 265 265 266 267 269 271 271 272 273 275 276 276 271 270 270 271 274 274 275 275 278 278 276 276 275 275 277 278 278 280 281 284 286 287
267 266 265 265 266 265 263 264 264 265 266 267 268 268 268 270 271 273 274 275 274 271 271 272 272 272 273 273 274 275 275 275 275 274 274 275 278 280 281 283 283 284 285
265 264 264 263 264 263 265 265 266 266 267 268 268 267 268 268 270 271 272 272 272 271 271 267 268 270 270 271 270 271 271 271 272 272 274 277 279 281 280 281 282 283 283
265 264 264 264 264 264 266 265 266 267 268 267 267 267 267 266 269 273 272 271 270 271 268 265 264 265 266 266 267 268 269 269 269 271 271 272 276 279 281 282 282 283 282
265 265 264 264 264 264 264 263 266 267 267 268 268 268 269 270 272 273 273 273 271 272 263 262 262 263 264 265 264 266 267 268 268 269 270 271 273 275 280 282 284 284 283
265 265 264 264 264 263 264 264 262 263 265 265 266 267 269 270 271 271 271 270 269 267 261 261 261 262 263 264 264 265 266 267 268 268 269 269 270 271 274 279 282 283 284
265 264 264 263 264 263 263 263 263 263 262 262 263 265 267 268 269 269 270 266 261 262 261 261 261 262 263 264 264 265 266 267 266 267 268 267 267 268 270 273 276 284 284
263 263 263 262 262 262 261 260 260 260 260 259 260 262 262 266 267 267 267 260 259 259 260 260 261 262 263 263 264 264 266 266 266 267 266 266 266 266 267 269 272 276 283
262 262 260 260 259 259 260 259 259 258 258 258 258 258 257 260 259 259 259 259 259 258 259 259 261 262 263 263 264 264 266 266 266 266 265 265 265 266 266 267 269 271 281
260 259 259 259 258 259 259 259 259 258 257 256 257 256 264 256 257 257 257 258 257 257 258 259 260 261 262 263 263 264 266 265 267 265 264 264 264 264 266 268 269 270 283
259 258 259 258 258 258 258 257 257 257 256 256 256 256 260 256 255 255 256 256 257 257 258 259 259 261 262 263 263 265 266 266 267 265 264 264 265 265 266 267 269 272 287
259 258 258 257 258 256 256 256 256 257 256 254 255 255 255 254 253 254 255 255 256 256 257 258 259 260 262 263 265 267 267 266 267 266 264 264 264 264 265 266 268 272 286
259 258 257 256 255 256 256 256 255 254 255 255 254 254 254 253 253 254 254 255 254 255 256 257 258 259 260 262 265 267 269 269 268 266 266 264 264 264 264 266 268 278 287
258 258 257 257 256 256 255 255 255 255 254 255 254 254 253 254 253 253 254 253 253 253 254 256 258 259 260 261 265 267 269 270 268 267 266 265 264 264 264 265 266 271 287
258 258 257 257 256 255 256 255 254 255 254 254 254 253 253 253 253 252 252 252 252 252 254 255 257 258 260 263 264 268 271 271 270 267 266 265 264 264 263 264 264 266 270
Wind_Speed
18 16 15 13 13 11 9 9 8 7 7 8 9 9 10 10 10 11 12 13 14 14 14 14 16 15 12 12 13 13 15 15 18 19 19 19 21 21 20 19 22 19 18
17 16 15 13 13 12 11 10 9 9 8 8 7 9 10 10 10 11 12 12 13 15 15 16 17 12 16 15 13 18 17 17 16 23 21 16 22 21 21 25 21 17 19
16 16 15 15 14 13 12 11 9 8 7 7 8 10 10 9 10 10 12 13 14 14 15 16 17 16 17 14 16 17 15 15 15 17 19 15 17 17 20 21 21 19 17
17 16 16 15 14 11 10 9 8 6 6 7 8 9 9 9 10 11 12 13 14 15 16 16 17 18 19 19 18 19 17 16 16 16 16 17 16 16 16 18 17 14 19
17 16 16 14 12 11 10 9 7 6 6 7 8 9 9 8 8 10 12 14 15 16 16 17 18 20 29 28 17 18 18 16 14 15 15 16 15 15 16 14 15 16 11
18 16 15 14 13 12 10 9 7 7 6 6 8 9 9 7 13 16 17 13 16 17 17 17 18 23 23 32 34 37 30 19 20 16 16 19 21 17 16 16 14 16 7
16 15 14 13 11 9 9 9 8 8 7 8 8 7 8 10 15 16 20 13 15 16 18 19 18 15 20 21 27 35 33 35 35 22 21 20 20 18 17 19 18 16 15
16 14 13 12 11 11 10 9 8 7 7 7 6 6 8 9 15 17 20 14 15 18 19 19 21 23 21 23 22 21 22 21 21 18 21 21 21 20 19 18 20 20 14
16 15 12 10 11 11 9 8 7 5 5 5 5 6 7 9 15 17 18 13 16 19 18 19 20 22 26 35 24 23 22 21 24 36 39 39 37 36 31 15 17 14 15
16 15 14 12 10 9 9 8 5 4 6 5 5 6 8 9 13 18 18 11 16 15 19 18 23 25 34 35 23 21 23 20 19 18 19 23 28 24 34 25 16 18 10
16 15 13 13 12 11 9 7 6 5 4 4 5 6 8 6 8 18 21 13 13 15 15 15 14 32 34 37 36 22 23 22 23 20 17 16 15 15 14 16 18 18 13
16 16 13 11 9 8 9 7 6 5 5 4 4 5 5 6 12 15 22 24 24 14 16 14 17 34 36 34 28 33 27 27 14 14 14 13 13 12 12 15 17 15 11
16 15 13 12 9 9 8 7 6 6 5 2 3 3 5 6 7 19 21 24 23 16 13 23 34 30 32 22 28 29 21 10 11 12 13 14 13 13 14 14 17 19 16
17 15 12 11 11 9 6 6 5 5 4 3 0 3 5 6 7 9 9 10 15 14 17 13 21 23 23 24 16 15 12 11 11 12 11 11 13 12 11 11 10 10 10
16 14 13 10 10 10 8 6 5 4 3 2 0 2 4 6 8 17 17 12 12 16 15 11 11 12 13 12 13 13 12 11 12 11 12 12 14 13 11 11 11 11 12
16 13 11 10 9 8 8 7 6 4 3 2 1 2 3 10 16 19 21 23 22 25 10 11 12 13 14 14 14 14 13 14 12 13 12 11 12 12 10 11 9 11 12
16 15 11 10 10 10 8 8 8 5 6 3 2 3 8 11 14 16 19 21 19 17 8 10 12 13 14 14 14 14 15 13 16 13 12 12 11 11 13 11 12 13 12
15 18 11 9 8 8 8 7 6 6 6 4 1 3 8 12 12 15 18 14 10 12 9 11 12 13 14 14 15 15 15 14 14 13 12 12 11 11 11 11 11 11 11
12 11 11 10 8 9 7 7 6 5 4 3 2 3 6 13 10 13 15 7 8 9 10 11 11 12 13 14 14 15 16 15 16 13 13 12 11 10 11 11 12 17 16
14 16 14 10 9 8 7 7 6 5 4 3 3 2 4 5 5 6 6 7 7 8 10 11 12 12 13 14 14 15 16 16 14 13 13 12 12 11 12 12 12 13 15
13 12 15 10 8 8 7 6 6 5 4 3 2 2 5 2 5 5 6 7 7 8 10 11 12 12 13 14 15 15 17 17 15 15 14 14 13 12 12 12 13 14 18
13 12 10 9 9 8 8 6 6 5 4 4 3 1 4 2 2 4 6 6 7 8 8 10 11 12 12 14 16 15 19 20 18 17 16 15 14 12 12 12 13 14 13
12 13 11 10 8 11 8 6 5 5 5 4 2 0 2 2 2 3 5 6 8 8 10 10 11 12 13 14 14 14 18 20 19 18 18 16 15 14 14 13 12 14 4
12 11 10 10 9 8 7 6 5 6 5 4 2 2 1 2 3 5 5 6 8 9 9 10 11 15 16 16 14 14 15 18 18 19 22 17 16 17 14 12 12 15 3
10 10 9 9 9 8 7 6 5 6 4 4 2 1 1 2 2 4 5 6 7 9 11 11 10 16 19 25 23 23 21 29 27 29 17 19 20 22 17 14 16 12 2
9 9 8 9 8 7 6 6 5 5 4 4 2 0 1 1 2 3 4 6 7 9 12 10 13 19 23 18 23 30 22 29 28 33 21 18 19 18 18 18 23 13 12
Wind_Direction
191 187 184 182 181 186 190 197 207 216 228 242 254 270 274 277 279 279 276 280 281 283 281 280 279 280 278 276 272 268 265 260 263 265 273 283 280 280 278 272 274 276 277
188 185 181 175 174 185 192 192 196 213 225 243 255 263 268 270 274 277 284 286 285 283 281 280 279 278 277 276 274 270 267 268 271 273 274 279 277 273 278 282 278 264 258
182 181 177 179 178 185 189 190 196 211 222 237 247 255 263 272 276 280 280 281 279 278 278 277 278 277 274 271 268 268 268 270 269 268 277 278 280 278 281 278 270 272 267
181 180 180 181 178 180 178 185 197 207 225 241 247 258 268 275 279 282 285 284 284 282 281 279 279 275 275 274 268 266 265 264 264 264 268 271 269 275 270 272 269 263 265
179 181 181 177 171 168 170 178 177 197 226 238 255 264 268 269 273 282 287 288 287 287 285 284 280 276 276 275 273 269 263 259 257 258 263 267 268 274 271 265 268 284 236
180 181 174 167 165 171 168 165 173 202 221 238 247 253 267 273 280 287 287 288 295 294 290 286 284 281 277 279 279 276 267 261 255 253 257 258 263 267 275 279 287 292 269
177 174 164 161 161 163 158 163 179 200 215 234 245 256 273 281 282 290 302 299 293 288 287 287 286 278 280 278 276 277 277 274 268 267 265 263 269 269 273 278 278 278 294
172 162 160 159 157 158 166 177 187 199 214 235 252 273 274 282 290 305 310 300 293 289 285 285 284 285 280 279 277 271 267 268 261 259 260 263 263 264 262 267 272 280 272
170 161 157 158 157 158 171 180 187 199 231 244 254 267 278 282 295 314 313 303 293 293 291 289 288 288 294 296 287 280 269 261 261 264 266 265 252 251 256 260 255 255 264
172 157 152 153 155 164 169 171 174 206 236 251 268 279 273 274 300 320 317 304 301 303 300 303 305 301 301 304 295 288 282 276 277 262 262 267 268 258 256 249 253 259 261
156 144 149 153 155 159 162 161 171 205 234 252 267 275 265 289 315 317 317 315 310 310 315 312 309 307 307 305 298 286 276 272 270 272 271 271 254 243 245 247 241 249 240
140 137 146 148 148 159 153 162 179 189 217 230 264 284 319 326 323 319 319 323 324 322 315 311 303 313 312 308 311 304 289 272 267 259 266 267 264 245 244 245 244 242 233
140 137 143 150 152 148 154 158 173 188 208 206 264 315 326 332 320 315 319 328 331 327 314 319 321 316 317 318 319 320 330 281 274 266 262 263 266 248 248 248 236 242 242
142 144 149 148 149 158 156 166 180 192 186 211 271 323 331 337 322 310 324 327 329 323 328 325 322 320 328 321 322 325 322 315 309 303 296 282 264 263 242 239 241 233 239
143 145 149 148 156 155 162 170 177 176 219 234 261 311 348 327 321 333 338 339 340 324 348 326 325 331 327 330 322 327 323 318 313 307 305 293 293 256 246 239 239 235 238
143 149 156 154 155 155 154 152 178 172 198 154 14 336 354 331 329 336 343 347 346 345 349 331 329 332 326 327 329 325 327 321 317 306 300 295 292 300 260 246 242 237 239
152 150 150 153 154 152 160 161 151 161 182 196 26 17 7 343 337 348 349 352 350 359 353 335 327 328 322 324 328 322 325 321 318 304 306 301 294 291 290 291 237 233 230
147 143 144 150 145 146 145 141 144 163 160 174 109 5 9 342 341 355 356 349 350 2 349 329 329 327 321 323 329 320 324 321 319 304 309 302 293 287 289 285 286 257 237
139 134 140 132 142 139 135 135 139 145 151 157 67 35 16 340 338 353 2 2 346 344 336 327 328 325 320 321 327 316 324 322 315 316 313 303 295 289 282 277 272 269 268
130 144 133 133 135 135 136 138 140 144 142 112 77 20 335 353 341 332 345 342 341 337 328 324 325 322 321 325 328 319 327 327 321 327 316 308 301 293 285 281 272 266 253
130 139 134 134 135 136 141 152 143 147 143 123 100 36 340 14 305 331 331 337 338 327 324 320 319 318 321 326 329 323 334 329 333 332 322 314 305 297 286 274 269 259 255
133 134 137 137 136 140 134 144 143 143 136 112 109 197 325 261 296 331 320 326 328 318 312 316 313 318 321 326 327 325 339 335 340 337 328 319 310 303 291 280 274 271 244
134 133 137 133 134 124 130 141 147 147 121 104 113 249 268 287 354 324 317 322 325 319 315 316 317 320 322 328 329 324 342 339 343 337 329 325 321 318 311 302 292 288 201
124 133 137 129 131 129 137 143 150 105 109 128 119 250 294 332 348 318 313 327 318 316 316 316 317 318 323 328 329 323 341 343 347 340 337 332 331 329 325 320 315 285 145
129 134 135 131 125 131 136 157 126 119 139 132 138 251 351 348 340 311 320 323 313 316 316 318 319 323 326 326 332 327 345 348 358 349 342 345 344 349 346 338 331 327 26
132 128 128 116 118 136 147 132 132 149 137 123 142 141 278 313 297 311 321 315 322 315 314 316 318 324 326 327 333 336 345 353 3 356 351 352 355 359 359 354 352 355 356